User: anonymous   Login
Location: Unspecified
(0.0000°N, 0.0000°E)
Time: 06:17:48
(UTC+00:00)
Language:

KKS-1 - Orbit

View from above orbital plane
View from above orbital plane
View from above satellite
View from above satellite

Ground track
Ground track

The orbit data is extracted from the following two-line orbital elements,

1 33499U 09002H   18175.57148834 +.00000110 +00000-0 +24255-4 0  9995
2 33499 098.3563 357.5775 0007896 269.4795 090.5508 14.75338417505847
Epoch (UTC): 24 June 2018 13:42:56
Eccentricity: 0.0007896
inclination: 98.3563°
perigee height: 638 km
apogee height: 649 km
right ascension of ascending node: 357.5775°
argument of perigee: 269.4795°
revolutions per day: 14.75338417
mean anomaly at epoch: 90.5508°
orbit number at epoch: 50584

The dashed part of the orbit path shows where the satellite is in the earth's shadow,  

DLR